Showing default

SEAHAWK-1, 43820

Orbit data source: Space-Track

SEAHAWK-1, 43820 is an American payload satellite in SSO that was launched on Mon, 03 Dec 2018 UTC via an FALCON 9 launch vehicle from the Air Force Western Test Range (AFWTR). Payload-class satellites include a variety of spacecraft equipped with specific instruments for various scientific and technological missions. These include communications satellites like Starlink; space stations such as the ISS; scientific satellites like the Hubble; Earth observation satellites from companies like Planet Labs, Umbra, and HawkEye 360; GPS; miniature CubeSats for education and research; and military/defense satellites.

Loading next visibility...
Identifier
43820, 2018-099BQ
Orbit
SSO
Country
Flag of USUS
Related business
Manufacturer
AAC ClydeSpace
Mission
Operational Amateur Technology
Bus & Motor
CUBESAT 3U, Unknown motor
Mass
5 kg wet, 5 kg dry
Launch date (UTC)
2018-12-03 (7 years ago)
Launch vehicle
FALCON 9
Launch site
Air Force Western Test Range (AFWTR)
Object type
Payload
Rocket body
Debris
Shape & HBR
Box + 4 Pan, 1.0 m
Radar Cross Section
0.035 m², Small (<0.1 m²)

Expand to show TLE details & history
Last TLE update: 21 hours ago

TLE from 21 hours ago
0 SEAHAWK-1
1 43820U 18099BQ  25341.09829224  .00015505  00000-0  74604-3 0  9995
2 43820  97.4259  31.7120 0007560 260.8284  99.2095 15.18843894383332
Epoch: 2025-12-07T02:21Z
TLE epoch observation values (Epoch: 2025-12-07T02:21:32.449Z)
Latitude
-0.00006°
Longitude
-79.78975°
Altitude
513.259 km
Speed
7.607 km/s
True Right ascension
02h 06m 50s
True Declination
0° 00' 00"
Sunlit
Object was in full shadow at epoch
Visualization orbit readout
Latitude
Unknown
Longitude
Unknown
Altitude
Unknown
Speed
Unknown
Apparent Right ascension
Unknown
Apparent Declination
Unknown
Sunlit
N/A
Visualization observer readout
Local Sidereal Time
21:46:36
Azimuth
Unknown
Elevation
Unknown
Doppler factor
Unknown
Orbital elements
Apogee altitude
511.506 km
Perigee altitude
501.097 km
Semi-major axis
6,884.439 km
Eccentricity
0.00076
Inclination
97.4259°
RAAN
31.712°
Arg. of periapsis
260.8284°
True anomaly
99.295°
Mean anomaly
99.2095°
Eccentric anomaly
99.25225°
Mean motion
3.79962 °/min
Orbital period
94.75 mins
BSTAR
0.00074604
Loading maneuver chart data...
Computing Atmospheric mass density...
Loading historical data...
Loading historical data...
Loading historical data...
Loading historical data...
Loading historical data...
Loading historical data...
Loading historical data...

Documentation

Showing up to 5 results
|